Athens, OH

9:00 AM EDT on September 23, 2017 (GMT -0400)
Ohio University

Weather History for KUNI - April, 2014

Change the Weather History Date:

Monday, April 7, 2014

  Actual Average (KPKB) Record (KPKB)
Temperature  
Mean Temperature 52 °F -  
Max Temperature 59 °F 60 °F 90 °F (1893)
Min Temperature 45 °F 37 °F 18 °F (1982)
Degree Days  
Heating Degree Days 13    
Growing Degree Days 2 (Base 50)    
Moisture  
Dew Point 45 °F    
Average Humidity 77    
Maximum Humidity 94    
Minimum Humidity 39    
Precipitation  
Precipitation 0.00 in - - ()
Sea Level Pressure  
Sea Level Pressure 29.66 in    
Wind  
Wind Speed 3 mph (ESE)    
Max Wind Speed 22 mph    
Max Gust Speed 38 mph    
Visibility 9 miles    
Events Rain    
Averages and records for this station are not official NWS values.
T = Trace of Precipitation, MM = Missing Value Source: NWS Daily Summary

Daily Weather History Graph

Daily Weather History Graph

Search for Another Location

Airport or City:

Trip Planner

Search our weather history database for the weather conditions in past years. The results will help you decide how hot, cold, wet, or windy it might be!

Date:

Astronomy

Apr. 07, 2014 Rise Set
Actual Time 7:04 AM EDT 7:58 PM EDT
Civil Twilight 6:36 AM EDT 8:25 PM EDT
Nautical Twilight 6:04 AM EDT 8:58 PM EDT
Astronomical Twilight 5:31 AM EDT 9:31 PM EDT
Moon 12:59 PM EDT (4/7) 2:33 AM EDT (4/7)
Length of Visible Light 13h 49m
Length of Day
12h 54m
First Quarter, 53% of the Moon is Illuminated
Apr 7
First Quarter
Apr 15
Full
Apr 22
Last Quarter
Apr 29
New
May 6
First Quarter

Hourly Weather History & Observations

Time (EDT) Temp. Dew Point Humidity Pressure Visibility Wind Dir Wind Speed Gust Speed Precip Events Conditions
12:15 AM 50.0 °F 26.1 °F 39% 29.95 in 10.0 mi ENE 3.5 mph - N/A   Clear
12:35 AM 46.9 °F 29.7 °F 51% 29.94 in 10.0 mi Calm Calm - N/A   Clear
12:55 AM 47.1 °F 30.6 °F 53% 29.94 in 10.0 mi Calm Calm - N/A   Clear
1:15 AM 46.9 °F 30.7 °F 53% 29.93 in 10.0 mi Calm Calm - N/A   Clear
1:35 AM 46.8 °F 31.8 °F 56% 29.93 in 10.0 mi Calm Calm - N/A   Clear
1:55 AM 45.9 °F 32.7 °F 60% 29.92 in 10.0 mi Calm Calm - N/A   Clear
2:15 AM 46.2 °F 33.1 °F 60% 29.91 in 10.0 mi Calm Calm - N/A   Clear
2:35 AM 46.6 °F 33.8 °F 61% 29.91 in 10.0 mi Calm Calm - N/A   Clear
2:55 AM 46.4 °F 34.2 °F 62% 29.89 in 10.0 mi Calm Calm - N/A   Clear
3:15 AM 46.2 °F 34.9 °F 65% 29.88 in 10.0 mi Calm Calm - N/A   Clear
3:35 AM 47.7 °F 34.5 °F 60% 29.88 in 10.0 mi Calm Calm - N/A   Clear
3:55 AM 48.6 °F 34.7 °F 59% 29.87 in 10.0 mi Calm Calm - N/A   Clear
4:15 AM 46.9 °F 36.5 °F 67% 29.86 in 10.0 mi Calm Calm - N/A   Clear
4:35 AM 49.5 °F 35.4 °F 58% 29.84 in 10.0 mi ESE 3.5 mph - N/A   Scattered Clouds
4:55 AM 52.7 °F 33.8 °F 49% 29.84 in 10.0 mi East 4.6 mph - N/A   Mostly Cloudy
5:15 AM 52.9 °F 33.8 °F 48% 29.84 in 10.0 mi Calm Calm - N/A   Overcast
5:35 AM 53.1 °F 34.2 °F 49% 29.85 in 10.0 mi Calm Calm - N/A   Overcast
5:55 AM 53.1 °F 35.1 °F 50% 29.84 in 10.0 mi Calm Calm - N/A   Overcast
6:15 AM 51.8 °F 36.1 °F 55% 29.84 in 10.0 mi Calm Calm - N/A Rain Light Rain
6:35 AM 52.2 °F 37.6 °F 58% 29.85 in 10.0 mi Calm Calm - N/A Rain Light Rain
6:55 AM 51.3 °F 39.2 °F 63% 29.84 in 10.0 mi Calm Calm - N/A Rain Light Rain
7:15 AM 49.8 °F 40.6 °F 71% 29.85 in 10.0 mi Calm Calm - N/A   Overcast
7:35 AM 50.2 °F 41.0 °F 71% 29.85 in 10.0 mi South 5.8 mph - N/A Rain Light Rain
7:55 AM 50.4 °F 42.6 °F 75% 29.82 in - SSE 8.1 mph - N/A   Unknown
8:15 AM 50.5 °F 44.6 °F 80% 29.81 in 10.0 mi SE 6.9 mph - N/A   Overcast
8:35 AM 50.4 °F 45.0 °F 82% 29.81 in 10.0 mi SSE 4.6 mph - N/A   Overcast
8:55 AM 50.4 °F 45.1 °F 82% 29.80 in 10.0 mi ESE 3.5 mph - N/A Rain Light Rain
9:15 AM 50.2 °F 45.7 °F 85% 29.79 in 10.0 mi East 3.5 mph - N/A Rain Rain
9:35 AM 49.3 °F 46.4 °F 90% 29.78 in 4.0 mi East 3.5 mph - N/A   Drizzle
9:55 AM 49.1 °F 46.9 °F 92% 29.74 in 4.0 mi East 5.8 mph - N/A   Overcast
10:15 AM 49.5 °F 47.3 °F 92% 29.75 in 10.0 mi ESE 4.6 mph - N/A   Overcast
10:35 AM 49.5 °F 47.1 °F 92% 29.73 in 2.0 mi ESE 4.6 mph - N/A Rain Rain
10:55 AM 49.8 °F 47.5 °F 92% 29.73 in 7.0 mi ESE 4.6 mph - N/A   Overcast
11:15 AM 50.0 °F 47.8 °F 92% 29.71 in 2.5 mi East 3.5 mph - N/A   Drizzle
11:55 AM 50.5 °F 48.7 °F 94% 29.68 in 3.0 mi East 5.8 mph - N/A   Overcast
12:15 PM 51.4 °F 49.3 °F 92% 29.67 in 10.0 mi ESE 4.6 mph - N/A   Overcast
12:35 PM 52.2 °F 49.6 °F 91% 29.66 in 10.0 mi East 5.8 mph - N/A   Overcast
12:55 PM 52.3 °F 49.3 °F 89% 29.66 in 10.0 mi ESE 4.6 mph - N/A   Overcast
1:15 PM 52.7 °F 49.3 °F 88% 29.64 in 10.0 mi East 3.5 mph - N/A   Overcast
1:35 PM 54.1 °F 50.4 °F 87% 29.61 in 10.0 mi East 8.1 mph - N/A   Mostly Cloudy
1:55 PM 55.6 °F 50.9 °F 84% 29.58 in 10.0 mi East 6.9 mph - N/A   Mostly Cloudy
2:15 PM 55.6 °F 50.2 °F 82% 29.57 in 10.0 mi East 5.8 mph - N/A   Overcast
2:35 PM 55.9 °F 50.2 °F 81% 29.58 in 10.0 mi Calm Calm - N/A Rain Light Rain
2:55 PM 55.0 °F 51.3 °F 87% 29.56 in 7.0 mi Calm Calm - N/A Rain Light Rain
3:15 PM 55.2 °F 52.2 °F 89% 29.54 in 10.0 mi ENE 4.6 mph - N/A Rain Rain
3:35 PM 55.4 °F 52.5 °F 90% 29.53 in 10.0 mi East 4.6 mph - N/A Rain Light Rain
3:55 PM 54.9 °F 52.3 °F 91% 29.51 in 10.0 mi ENE 5.8 mph - N/A Rain Light Rain
4:15 PM 55.4 °F 52.7 °F 91% 29.50 in 10.0 mi NE 3.5 mph - N/A   Overcast
4:35 PM 55.4 °F 53.1 °F 92% 29.48 in 10.0 mi ENE 3.5 mph - N/A   Overcast
4:55 PM 56.3 °F 53.8 °F 91% 29.47 in 10.0 mi ENE 3.5 mph - N/A   Overcast
5:15 PM 57.0 °F 54.0 °F 89% 29.45 in 10.0 mi Calm Calm - N/A   Overcast
5:35 PM 57.4 °F 54.1 °F 89% 29.44 in 10.0 mi Calm Calm - N/A   Overcast
5:55 PM 58.1 °F 54.3 °F 87% 29.43 in 10.0 mi Calm Calm - N/A   Overcast
6:15 PM 58.1 °F 54.7 °F 88% 29.41 in 10.0 mi Calm Calm - N/A   Overcast
6:35 PM 57.6 °F 54.7 °F 90% 29.41 in 10.0 mi Calm Calm - N/A   Overcast
6:55 PM 58.1 °F 54.7 °F 88% 29.41 in 10.0 mi Calm Calm - N/A   Overcast
7:15 PM 58.5 °F 54.1 °F 86% 29.41 in 10.0 mi Calm Calm - N/A Rain Light Rain
7:35 PM 58.5 °F 53.6 °F 84% 29.41 in 5.0 mi South 8.1 mph 18.4 mph N/A Rain Light Rain
7:55 PM 57.7 °F 53.6 °F 86% 29.41 in 10.0 mi SSE 5.8 mph - N/A Rain Light Rain
8:15 PM 56.7 °F 53.1 °F 88% 29.40 in 10.0 mi Calm Calm - N/A   Scattered Clouds
8:35 PM 56.1 °F 52.7 °F 88% 29.39 in 10.0 mi SSE 4.6 mph - N/A   Scattered Clouds
8:55 PM 56.5 °F 53.1 °F 88% 29.39 in 10.0 mi SSE 6.9 mph - N/A   Clear
9:15 PM 57.7 °F 53.2 °F 85% 29.39 in 10.0 mi South 4.6 mph - N/A   Clear
9:35 PM 57.6 °F 53.4 °F 86% 29.40 in 10.0 mi South 5.8 mph - N/A   Clear
9:55 PM 59.2 °F 54.3 °F 84% 29.40 in 10.0 mi South 6.9 mph - N/A   Clear
10:15 PM 58.5 °F 54.5 °F 87% 29.43 in 5.0 mi SW 17.3 mph 38.0 mph N/A Rain Rain
10:35 PM 56.7 °F 53.4 °F 89% 29.43 in 7.0 mi WSW 17.3 mph 34.5 mph N/A Rain Light Rain
10:55 PM 56.7 °F 51.1 °F 82% 29.43 in 10.0 mi SW 12.7 mph 27.6 mph N/A Rain Light Rain
11:15 PM 56.5 °F 49.3 °F 77% 29.44 in 10.0 mi WSW 21.9 mph 31.1 mph N/A   Overcast
11:35 PM 55.9 °F 47.3 °F 73% 29.44 in 10.0 mi SW 16.1 mph 28.8 mph N/A   Mostly Cloudy
11:55 PM 55.8 °F 46.8 °F 72% 29.45 in 10.0 mi SW 12.7 mph 19.6 mph N/A   Mostly Cloudy